Starlink 31747

operational
NORAD ID: 59564 Int'l Des: 2024-076 Owner: SPXS Country: US Constellation: starlink
LEOCIRCULAR

Starlink 31747について

説明を読み込み中...

リアルタイム位置

3D地球を読み込み中...

次回通過

高度履歴

Altitude vs Time

uPlot chart will show altitude changes over time

軌道要素

1 59564U 24076A 25260.01404750 -.00000930 00000-0 -24267-4 0 9993
2 59564 43.0010 259.2422 0001995 279.4777 80.5849 15.27573193 80052
Epoch: Sep 17, 2025 • Age: 24 hours

現在のステータス

高度 483.0 km
速度 7.63 km/s
衛星直下点 2.80°N, 63.7°E
打ち上げ日 Apr 23, 2024
運用期間 1.4 years
タイプ internet

技術仕様

分類 Payload
質量 730.00 kg
乾燥質量 700.00 kg
総質量 730.00 kg
長さ 0.30 m
直径 4.10 m
スパン 29.00 m
形状 Box + pan
製造者 SPXS
バスタイプ Starlink V2M
フェーズステータス In Orbit
所有者/国 SPXS/US

大規模コンステレーション

Loading constellations...